CAPE
5 3 6 6 3 1 0 0 0 0 0 0 0 0 0 0 0 0 0 0 0 0 0 0 0 0 0 0 0 0 0 0 0 0 0 0 0 0 0 0 0 0 0 0 4
4 7 7 5 1 0 0 0 0 0 0 0 0 0 0 0 0 0 0 0 0 0 0 0 0 0 0 0 0 0 0 0 0 0 0 0 0 0 0 0 0 0 0 0 14
6 7 6 4 0 0 0 0 0 0 0 0 0 0 0 0 0 0 0 0 0 0 0 0 0 0 0 0 0 0 0 0 0 0 0 0 0 0 0 0 0 0 0 0 1
5 5 8 4 1 0 0 0 0 0 0 0 0 0 0 0 0 0 0 0 0 0 0 0 0 0 0 0 0 0 0 0 0 0 0 0 0 0 0 0 0 0 0 0 0
8 2 5 3 0 0 0 0 0 0 0 0 0 0 0 0 0 0 0 0 0 0 0 0 0 0 0 0 0 0 0 0 0 0 0 0 0 0 0 0 0 0 0 0 0
5 2 2 0 0 0 0 0 0 0 0 0 0 0 0 0 0 0 0 0 0 0 0 0 0 0 0 0 0 0 0 0 0 0 0 0 0 0 0 0 0 0 0 0 0
3 3 0 0 0 0 0 0 0 0 0 0 0 0 0 0 0 0 0 0 0 0 0 0 0 0 0 0 0 0 0 0 0 0 0 0 0 0 0 0 0 0 0 0 0
4 0 0 0 0 0 0 0 0 0 0 0 0 0 0 0 0 0 0 0 0 0 0 0 0 0 0 0 0 0 0 0 0 0 0 0 0 0 0 0 0 0 0 0 0
4 0 0 0 0 0 0 0 0 0 0 0 0 0 0 0 0 0 0 0 0 0 0 0 0 0 0 0 0 0 0 0 0 0 0 0 0 0 0 0 0 0 0 0 0
5 0 0 0 0 0 0 0 0 0 0 0 0 0 0 0 0 0 0 0 0 0 0 0 0 0 0 0 0 0 0 0 0 0 0 0 0 0 0 0 0 0 0 0 0
7 1 0 0 0 0 0 0 0 0 0 0 0 0 0 0 0 0 0 0 0 0 0 0 0 0 0 0 0 0 0 0 0 0 0 0 0 0 0 0 0 0 0 0 0
8 4 7 4 1 2 0 0 0 0 0 0 0 0 0 0 0 0 0 0 0 0 0 0 0 0 0 0 0 0 0 0 0 0 0 0 0 0 0 0 0 0 0 0 0
12 10 5 5 6 1 0 0 0 0 0 0 0 0 0 0 0 0 0 0 0 0 0 0 0 0 0 0 0 0 0 0 0 0 0 0 0 0 0 0 0 0 0 0 0
2 0 2 8 4 0 0 0 0 0 0 0 0 0 0 0 0 0 0 0 0 0 0 0 0 0 0 0 0 0 0 0 0 0 0 0 0 0 0 0 0 0 0 0 0
4 4 0 14 0 0 0 0 0 0 0 0 0 0 0 0 0 0 0 0 0 0 0 0 0 0 0 0 0 0 0 0 0 0 0 0 0 0 0 0 0 0 0 0 0
3 2 1 7 4 1 0 0 0 0 0 0 0 0 0 0 0 0 0 0 0 0 0 0 0 0 0 0 0 0 0 0 0 0 0 0 0 0 0 0 0 0 0 0 0
0 1 2 1 36 1 0 2 0 0 0 0 0 0 0 0 0 0 0 0 0 0 0 0 0 0 0 0 0 0 0 0 0 0 0 0 0 0 0 0 0 0 0 0 0
0 0 1 2 1 1 10 32 0 0 0 0 0 0 0 0 0 0 0 0 0 0 0 0 0 0 0 0 0 0 0 0 0 0 0 0 0 0 0 0 0 0 0 0 0
0 0 0 1 1 1 69 0 0 0 0 0 0 0 0 0 0 0 0 0 0 0 0 0 0 0 0 0 0 0 0 0 0 0 0 0 0 0 0 0 0 0 0 0 0
0 0 0 0 1 9 32 0 0 0 0 0 0 0 0 0 0 0 0 0 0 0 0 0 0 0 0 0 0 0 0 0 0 0 0 0 0 0 0 0 0 0 0 0 0
0 0 0 0 7 0 1 0 0 0 0 0 0 0 0 0 0 0 0 0 0 0 0 0 0 0 0 0 0 0 0 0 0 0 0 0 0 0 0 0 0 0 0 0 0
0 0 0 0 6 1 0 0 0 0 0 0 0 0 0 0 0 0 0 0 0 0 0 0 0 0 0 0 0 0 0 0 0 0 0 0 0 0 0 0 0 0 0 0 0
0 0 0 0 1 0 2 3 0 0 0 0 0 0 0 0 0 0 0 0 0 0 0 0 0 0 0 0 0 0 0 0 0 0 0 0 0 0 0 0 0 0 0 0 0
0 0 0 0 3 0 2 1 1 1 1 0 0 0 0 0 0 0 0 0 0 0 0 0 0 0 0 0 0 0 0 0 0 0 0 0 0 0 0 0 0 0 0 0 0
0 0 0 0 0 0 1 1 1 0 0 0 0 0 0 0 0 0 0 0 0 0 0 0 0 0 0 0 0 0 0 0 0 0 0 0 0 0 0 0 0 0 0 0 0
0 0 0 0 0 0 0 0 1 0 0 1 1 1 0 0 0 0 0 0 0 0 0 0 0 0 0 0 0 0 0 0 0 0 0 0 0 0 0 0 0 0 0 0 0
0 0 0 0 0 0 0 0 0 0 0 0 0 1 0 0 0 0 0 0 3 0 0 0 0 0 0 0 0 0 0 0 0 0 0 0 0 0 0 0 0 0 0 0 0
CIN
-0 -0 -0 -0 -0 -0 -0 -0 -0 -0 -0 -0 -0 -0 -0 -0 -0 -0 -0 -0 -0 -0 -0 -0 -0 -0 -0 -0 -0 -0 -0 -0 -0 -0 -0 -0 -0 -0 -0 -0 -0 -0 -0 -0 -445
-1 -0 -0 -0 -0 -0 -0 -0 -0 -0 -0 -0 -0 -0 -0 -0 -0 -0 -0 -0 -0 -0 -0 -0 -0 -0 -0 -0 -0 -0 -0 -0 -0 -0 -0 -0 -0 -0 -0 -0 -0 -0 -0 -0 -421
-0 -1 -1 -0 -0 -0 -0 -0 -0 -0 -0 -0 -0 -0 -0 -0 -0 -0 -0 -0 -0 -0 -0 -0 -0 -0 -0 -0 -0 -0 -0 -0 -0 -0 -0 -0 -0 -0 -0 -0 -0 -0 -0 -0 -62
-2 -2 -0 -0 -0 -0 -0 -0 -0 -0 -0 -0 -0 -0 -0 -0 -0 -0 -0 -0 -0 -0 -0 -0 -0 -0 -0 -0 -0 -0 -0 -0 -0 -0 -0 -0 -0 -0 -0 -0 -0 -0 -0 -0 -0
-3 -1 -0 -1 -0 -0 -0 -0 -0 -0 -0 -0 -0 -0 -0 -0 -0 -0 -0 -0 -0 -0 -0 -0 -0 -0 -0 -0 -0 -0 -0 -0 -0 -0 -0 -0 -0 -0 -0 -0 -0 -0 -0 -0 -0
-3 -1 -1 -0 -0 -0 -0 -0 -0 -0 -0 -0 -0 -0 -0 -0 -0 -0 -0 -0 -0 -0 -0 -0 -0 -0 -0 -0 -0 -0 -0 -0 -0 -0 -0 -0 -0 -0 -0 -0 -0 -0 -0 -0 -0
-4 -1 -0 -0 -0 -0 -0 -0 -0 -0 -0 -0 -0 -0 -0 -0 -0 -0 -0 -0 -0 -0 -0 -0 -0 -0 -0 -0 -0 -0 -0 -0 -0 -0 -0 -0 -0 -0 -0 -0 -0 -0 -0 -0 -0
-2 -2 -0 -0 -0 -0 -0 -0 -0 -0 -0 -0 -0 -0 -0 -0 -0 -0 -0 -0 -0 -0 -0 -0 -0 -0 -0 -0 -0 -0 -0 -0 -0 -0 -0 -0 -0 -0 -0 -0 -0 -0 -0 -0 -0
-2 -0 -0 -0 -0 -0 -0 -0 -0 -0 -0 -0 -0 -0 -0 -0 -0 -0 -0 -0 -0 -0 -0 -0 -0 -0 -0 -0 -0 -0 -0 -0 -0 -0 -0 -0 -0 -0 -0 -0 -0 -0 -0 -0 -0
-1 -0 -0 -0 -0 -0 -0 -0 -0 -0 -0 -0 -0 -0 -0 -0 -0 -0 -0 -0 -0 -0 -0 -0 -0 -0 -0 -0 -0 -0 -0 -0 -0 -0 -0 -0 -0 -0 -0 -0 -0 -0 -0 -0 -0
-4 -2 -0 -0 -0 -0 -0 -0 -0 -0 -0 -0 -0 -0 -0 -0 -0 -0 -0 -0 -0 -0 -0 -0 -0 -0 -0 -0 -0 -0 -0 -0 -0 -0 -0 -0 -0 -0 -0 -0 -0 -0 -0 -0 -0
-4 -2 -1 -0 -0 -0 -0 -0 -0 -0 -0 -0 -0 -0 -0 -0 -0 -0 -0 -0 -0 -0 -0 -0 -0 -0 -0 -0 -0 -0 -0 -0 -0 -0 -0 -0 -0 -0 -0 -0 -0 -0 -0 -0 -0
-7 -4 -1 -0 -0 -0 -0 -0 -0 -0 -0 -0 -0 -0 -0 -0 -0 -0 -0 -0 -0 -0 -0 -0 -0 -0 -0 -0 -0 -0 -0 -0 -0 -0 -0 -0 -0 -0 -0 -0 -0 -0 -0 -0 -0
-0 -2 -2 -0 -0 -0 -0 -0 -0 -0 -0 -0 -0 -0 -0 -0 -0 -0 -0 -0 -0 -0 -0 -0 -0 -0 -0 -0 -0 -0 -0 -0 -0 -0 -0 -0 -0 -0 -0 -0 -0 -0 -0 -0 -0
-0 -0 -0 -2 -0 -0 -0 -0 -0 -0 -0 -0 -0 -0 -0 -0 -0 -0 -0 -0 -0 -0 -0 -0 -0 -0 -0 -0 -0 -0 -0 -0 -0 -0 -0 -0 -0 -0 -0 -0 -0 -0 -0 -0 -0
-0 -0 -0 -8 -7 -53 -0 -0 -0 -0 -0 -0 -0 -0 -0 -0 -0 -0 -0 -0 -0 -0 -0 -0 -0 -0 -0 -0 -0 -0 -0 -0 -0 -0 -0 -0 -0 -0 -0 -0 -0 -0 -0 -0 -0
-0 -0 -0 -0 -12 -0 -0 -55 -0 -0 -0 -0 -0 -0 -0 -0 -0 -0 -0 -0 -0 -0 -0 -0 -0 -0 -0 -0 -0 -0 -0 -0 -0 -0 -0 -0 -0 -0 -0 -0 -0 -0 -0 -0 -0
-0 -0 -0 -0 -0 -0 -139 -22 -0 -0 -0 -0 -0 -0 -0 -0 -0 -0 -0 -0 -0 -0 -0 -0 -0 -0 -0 -0 -0 -0 -0 -0 -0 -0 -0 -0 -0 -0 -0 -0 -0 -0 -0 -0 -0
-0 -0 -0 -0 -0 -7 -22 -0 -0 -0 -0 -0 -0 -0 -0 -0 -0 -0 -0 -0 -0 -0 -0 -0 -0 -0 -0 -0 -0 -0 -0 -0 -0 -0 -0 -0 -0 -0 -0 -0 -0 -0 -0 -0 -0
-0 -0 -0 -0 -0 -33 -8 -0 -0 -0 -0 -0 -0 -0 -0 -0 -0 -0 -0 -0 -0 -0 -0 -0 -0 -0 -0 -0 -0 -0 -0 -0 -0 -0 -0 -0 -0 -0 -0 -0 -0 -0 -0 -0 -0
-0 -0 -0 -0 -9 -2 -0 -0 -0 -0 -0 -0 -0 -0 -0 -0 -0 -0 -0 -0 -0 -0 -0 -0 -0 -0 -0 -0 -0 -0 -0 -0 -0 -0 -0 -0 -0 -0 -0 -0 -0 -0 -0 -0 -0
-0 -0 -0 -0 -0 -0 -0 -0 -0 -0 -0 -0 -0 -0 -0 -0 -0 -0 -0 -0 -0 -0 -0 -0 -0 -0 -0 -0 -0 -0 -0 -0 -0 -0 -0 -0 -0 -0 -0 -0 -0 -0 -0 -0 -0
-0 -0 -0 -0 -4 -0 -0 -0 -0 -0 -0 -0 -0 -0 -0 -0 -0 -0 -0 -0 -0 -0 -0 -0 -0 -0 -0 -0 -0 -0 -0 -0 -0 -0 -0 -0 -0 -0 -0 -0 -0 -0 -0 -0 -0
-0 -0 -0 -0 -0 -0 -0 -0 -0 -3 -0 -0 -0 -0 -0 -0 -0 -0 -0 -0 -0 -0 -0 -0 -0 -0 -0 -0 -0 -0 -0 -0 -0 -0 -0 -0 -0 -0 -0 -0 -0 -0 -0 -0 -0
-0 -0 -0 -0 -0 -0 -0 -0 -0 -0 -0 -0 -0 -0 -0 -0 -0 -0 -0 -0 -0 -0 -0 -0 -0 -0 -0 -0 -0 -0 -0 -0 -0 -0 -0 -0 -0 -0 -0 -0 -0 -0 -0 -0 -0
-0 -0 -0 -0 -0 -0 -0 -0 -0 -0 -0 -0 -0 -0 -0 -0 -0 -0 -0 -0 -0 -0 -0 -0 -0 -0 -0 -0 -0 -0 -0 -0 -0 -0 -0 -0 -0 -0 -0 -0 -0 -0 -0 -0 -0
-0 -0 -0 -0 -0 -0 -0 -0 -0 -0 -0 -0 -0 -0 -0 -0 -0 -0 -0 -0 -0 -0 -0 -0 -0 -0 -0 -0 -0 -0 -0 -0 -0 -0 -0 -0 -0 -0 -0 -0 -0 -0 -0 -0 -0
Wind_Speed
24 25 25 22 22 22 21 17 15 23 28 29 27 26 26 24 22 22 27 23 24 22 20 20 20 19 20 20 20 20 14 10 16 25 21 21 22 21 19 19 20 20 18 17 21
25 26 25 24 24 23 24 21 24 25 27 27 26 25 24 23 23 27 24 23 22 22 21 22 22 20 21 21 20 20 17 16 18 20 20 21 19 20 20 19 19 19 19 18 19
26 25 26 25 25 25 24 28 22 24 24 25 24 24 22 22 23 26 24 23 22 21 21 21 20 21 21 22 21 20 20 18 17 18 14 6 15 14 18 19 19 18 19 18 19
29 25 25 25 25 26 26 26 24 23 22 23 23 23 21 22 28 22 21 21 21 20 20 19 21 21 20 21 21 18 19 18 14 16 13 8 12 15 17 3 15 19 18 16 18
29 25 25 24 24 25 26 25 25 22 21 23 23 21 21 27 26 19 20 20 20 21 22 21 22 21 20 21 19 21 17 17 16 16 14 13 15 20 22 22 18 15 11 15 17
27 25 25 24 24 25 25 25 25 24 21 21 22 22 23 29 19 18 19 20 22 21 22 22 22 21 19 20 20 19 16 17 17 19 18 17 18 18 17 18 14 14 7 12 14
27 26 25 25 22 27 27 25 24 24 22 22 22 22 23 26 18 18 18 21 21 20 22 21 17 20 17 17 17 15 17 17 19 19 18 18 22 20 21 21 16 15 18 9 14
27 27 27 25 24 23 26 25 24 23 22 22 21 22 26 19 18 18 18 18 17 16 19 16 16 15 18 16 16 16 18 20 18 16 17 15 23 17 17 16 17 16 17 9 5
27 27 27 26 25 23 20 24 25 23 23 20 22 23 27 20 21 19 18 19 17 16 15 14 17 18 17 19 18 18 22 23 19 16 17 16 21 16 14 16 20 20 19 21 26
26 26 27 25 24 23 21 19 18 21 21 20 22 24 24 27 20 19 17 16 19 16 17 20 20 22 21 23 26 22 23 22 21 18 17 19 22 21 19 24 27 27 25 25 25
28 26 26 25 23 23 21 18 19 23 27 28 27 26 24 20 19 21 19 16 19 20 25 23 26 29 24 23 21 17 21 22 19 18 18 22 24 27 28 29 30 31 30 31 32
27 26 25 24 22 22 23 25 23 20 30 24 24 27 21 21 24 22 19 23 23 27 22 24 33 26 21 21 21 19 21 21 19 18 20 24 28 27 28 30 30 32 31 28 26
23 26 24 23 22 24 27 26 21 19 23 29 26 27 26 22 25 26 23 22 25 26 26 28 26 21 22 23 22 23 23 23 23 19 20 27 28 25 21 21 25 24 24 23 24
20 23 25 23 25 25 29 23 20 19 28 31 32 28 24 24 28 23 22 24 24 29 26 27 22 21 24 27 24 29 22 21 22 24 29 22 29 23 23 23 20 20 18 18 18
21 22 25 26 23 28 24 19 18 20 41 27 31 24 23 28 23 28 20 25 27 26 26 28 25 22 24 25 21 26 17 18 20 23 26 25 27 22 20 19 20 17 16 16 16
19 23 24 25 22 22 18 16 17 28 45 30 27 33 30 31 28 24 24 20 22 25 26 26 22 24 25 21 20 13 17 18 20 23 31 26 25 27 19 15 15 14 14 14 14
18 21 21 23 23 20 20 20 28 41 27 32 33 32 34 32 31 29 31 31 32 31 32 29 28 25 20 21 20 22 22 28 30 29 31 23 23 23 18 16 12 12 12 12 14
18 19 23 23 21 18 20 27 39 36 31 23 27 27 37 31 34 32 32 36 34 30 31 34 35 28 25 26 26 24 25 28 33 32 29 24 28 24 19 13 13 12 11 12 14
22 24 25 23 22 20 26 37 40 31 32 26 21 30 34 34 32 34 37 39 36 29 34 34 36 27 26 25 22 29 33 24 27 27 30 27 25 22 15 13 11 11 13 14 16
21 22 30 27 24 22 31 41 35 25 27 30 33 29 36 34 35 35 36 36 38 34 29 31 33 30 28 23 26 28 21 29 29 35 39 33 32 26 17 14 14 14 16 17 19
20 25 23 25 28 26 40 42 34 30 25 28 33 33 33 33 34 36 36 33 33 32 29 30 33 32 28 35 33 29 31 28 26 31 34 35 35 20 14 14 16 16 18 19 20
23 31 22 23 28 25 34 34 31 32 29 28 27 27 31 31 33 35 37 34 28 29 36 29 30 38 35 30 29 32 34 31 37 38 36 36 36 14 12 14 15 17 19 19 19
26 28 22 24 35 31 25 30 31 31 31 30 31 30 28 30 32 32 31 27 27 28 31 31 37 42 40 37 32 37 35 34 32 31 38 39 37 17 17 20 19 18 18 19 21
24 32 27 28 26 32 33 28 28 28 34 30 32 29 29 30 31 32 33 28 25 26 26 25 35 42 52 44 35 40 35 33 34 40 40 40 32 24 23 23 22 20 20 21 23
26 28 27 34 35 30 28 31 33 30 27 28 34 33 35 35 34 33 30 29 27 27 26 27 37 36 35 34 34 36 38 36 38 38 39 39 33 27 24 26 23 22 22 24 26
30 29 28 28 31 36 33 33 31 32 30 31 30 28 27 33 32 33 32 32 32 28 29 31 37 34 38 34 34 39 37 36 38 38 37 34 35 25 24 22 25 26 28 29 30
24 23 28 30 31 32 40 35 36 30 28 28 31 28 31 30 25 25 24 26 28 30 30 31 32 34 42 35 36 46 40 35 34 33 33 40 35 24 26 27 28 28 29 31 32
Wind_Direction
242 240 239 239 237 237 237 243 246 234 223 221 229 233 232 234 234 230 226 230 227 225 226 222 222 222 222 224 226 225 249 262 234 180 197 154 143 146 182 152 184 175 176 187 126
240 238 236 236 233 234 233 234 231 227 225 224 231 234 234 235 232 230 231 228 228 225 223 221 220 222 225 228 231 232 243 243 231 225 220 181 208 132 151 159 165 185 185 166 118
237 237 234 233 231 229 230 224 232 229 231 228 234 235 238 232 230 230 228 227 228 226 227 226 223 226 230 231 234 237 238 240 247 239 253 311 257 262 144 171 167 163 159 130 127
234 235 234 232 231 229 229 227 230 233 238 234 236 238 237 230 220 232 228 229 230 228 225 224 225 229 233 235 237 247 247 247 258 249 264 308 300 283 174 188 276 199 156 125 133
231 234 234 232 230 231 230 232 229 234 239 233 237 242 233 226 232 239 231 231 230 226 224 226 227 232 236 238 242 246 253 257 260 263 281 291 289 269 257 229 287 304 94 133 141
230 232 233 233 232 230 231 233 230 231 237 242 241 240 233 226 244 241 234 232 229 227 226 228 231 236 240 242 245 250 259 262 268 267 280 288 292 291 299 294 305 308 40 133 145
229 231 231 232 235 230 229 234 232 231 237 238 241 239 236 232 247 244 236 233 231 232 228 233 236 239 243 243 250 259 260 268 271 275 284 291 285 291 283 289 310 307 294 327 162
229 230 231 232 234 237 233 233 234 238 239 240 243 239 232 248 246 243 237 234 237 241 236 241 242 244 247 249 256 260 267 263 278 283 290 298 284 305 305 304 300 309 306 332 152
229 229 230 232 234 236 240 235 234 240 237 244 236 237 234 243 238 240 240 232 233 238 241 245 246 245 248 247 254 262 264 264 279 286 290 291 294 305 311 307 296 297 303 299 282
228 230 230 232 235 237 238 242 245 238 236 238 240 236 240 233 238 238 243 233 235 232 237 241 245 243 247 247 249 258 262 269 272 285 289 290 287 296 300 292 286 286 291 291 293
225 230 231 233 234 235 233 233 235 239 232 233 235 238 237 239 240 236 237 237 235 237 235 240 240 240 245 252 262 267 267 271 281 293 292 288 288 286 287 286 283 281 287 286 284
228 229 231 233 234 236 233 234 238 246 230 242 242 236 244 240 235 235 237 236 234 232 238 242 242 247 252 255 261 267 269 274 286 294 292 292 288 292 291 286 290 287 289 293 296
229 229 231 232 233 236 233 237 244 247 243 239 240 237 237 241 238 230 234 241 238 236 238 242 253 248 251 253 258 265 268 272 277 291 298 295 292 298 304 304 301 301 301 305 303
234 232 232 231 233 235 234 238 245 250 241 241 236 241 241 240 239 243 241 240 243 238 239 249 256 247 250 253 257 259 272 277 279 283 279 298 284 296 301 303 315 315 316 318 321
242 239 233 227 239 230 238 238 245 248 235 244 234 243 240 235 239 236 248 242 241 243 244 247 250 252 253 257 258 264 275 277 282 282 284 288 289 293 303 305 311 322 328 331 332
248 241 238 231 239 238 239 235 241 236 234 240 238 232 231 236 240 237 242 252 248 247 251 252 261 257 256 260 261 259 272 281 285 283 279 283 284 290 296 303 314 327 337 343 352
251 246 236 235 236 238 229 224 230 235 245 241 237 234 232 236 237 239 235 236 238 240 244 249 253 259 261 255 259 262 263 270 272 272 275 285 283 287 291 303 309 324 340 349 354
254 250 239 237 238 235 225 224 236 241 239 251 242 234 234 237 240 240 238 239 244 246 245 244 250 251 256 258 256 256 259 265 268 270 274 281 279 284 296 299 306 318 333 343 344
255 251 242 246 244 237 224 228 236 243 238 239 242 236 238 239 243 240 241 243 243 244 249 251 253 258 257 260 255 257 258 268 272 278 277 278 283 293 291 297 305 313 321 324 329
250 247 240 246 244 236 230 233 238 246 246 239 241 243 239 238 241 241 241 249 247 246 256 256 256 259 258 262 263 262 257 263 266 267 270 276 276 278 273 279 292 303 311 318 322
250 240 246 243 242 233 231 235 241 243 249 244 245 245 247 244 244 245 249 257 251 249 253 254 257 260 257 254 253 258 259 266 269 269 271 274 277 277 266 283 289 300 309 314 319
247 237 245 240 230 240 237 239 240 239 246 248 251 250 247 246 246 247 248 255 260 252 247 254 261 257 259 268 264 261 259 257 261 265 270 274 279 271 269 287 300 302 309 316 321
244 243 255 246 234 238 244 243 239 239 243 246 248 251 253 248 250 248 251 259 260 254 251 248 256 254 259 263 263 259 260 260 265 272 267 269 276 257 273 285 297 303 309 314 317
247 240 247 244 246 238 238 238 240 246 247 249 251 252 250 251 255 252 252 259 261 259 260 254 255 254 255 263 260 259 260 260 260 264 269 269 273 259 265 281 291 298 305 311 314
248 247 247 238 238 242 243 242 241 243 250 247 252 251 250 252 252 254 254 254 259 263 259 258 256 258 263 266 264 263 260 257 256 260 265 270 269 260 263 278 287 296 301 306 310
246 247 245 248 245 240 242 243 242 244 244 248 251 249 252 251 252 254 254 256 258 260 258 262 260 261 262 266 267 264 265 261 262 263 266 271 273 277 276 281 287 293 298 302 306
259 261 251 250 248 244 244 245 246 246 252 253 250 250 253 256 257 262 263 261 263 258 258 259 259 260 260 264 266 264 260 260 263 265 266 267 274 275 279 283 288 292 297 301 305